This is the latest recevied weather packets stored in our database for station/object K0QED. If no packets are shown the sender has not sent any weather packets the latest 10 day(s).
| Time | Temp. | Humidity | Pressure | Rain* | Wind** | Luminosity | Snow |
|---|---|---|---|---|---|---|---|
| 1788548540 | 29.44° C | 26% | 1024.9 hPa | 0 mm | - | 663 W/m² | - |
| 1788548237 | 28.33° C | 26% | 1024.5 hPa | 0 mm | - | 649 W/m² | - |
| 1788547937 | 28.89° C | 26% | 1024.7 hPa | 0 mm | - | 665 W/m² | - |
| 1788547635 | 29.44° C | 26% | 1025 hPa | 0 mm | - | 676 W/m² | - |
| 1788547332 | 28.89° C | 26% | 1025 hPa | 0 mm | - | 658 W/m² | - |
| 1788547027 | 30° C | 25% | 1025 hPa | 0 mm | - | 650 W/m² | - |
| 1788546721 | 29.44° C | 25% | 1025.1 hPa | 0 mm | - | 629 W/m² | - |
| 1788546417 | 28.89° C | 26% | 1024.9 hPa | 0 mm | - | 601 W/m² | - |
| 1788546111 | 28.33° C | 26% | 1025.4 hPa | 0 mm | - | 612 W/m² | - |
| 1788545807 | 28.33° C | 26% | 1025.2 hPa | 0 mm | - | 616 W/m² | - |
| 1788545501 | 28.89° C | 26% | 1025.4 hPa | 0 mm | - | 619 W/m² | - |
| 1788545197 | 29.44° C | 25% | 1025.5 hPa | 0 mm | - | 619 W/m² | - |
| 1788544892 | 28.33° C | 26% | 1025.2 hPa | 0 mm | - | 622 W/m² | - |
| 1788544591 | 28.33° C | 27% | 1025.5 hPa | 0 mm | - | 658 W/m² | - |
| 1788544290 | 27.78° C | 26% | 1025.4 hPa | 0 mm | - | 652 W/m² | - |
| 1788543990 | 28.33° C | 27% | 1025.4 hPa | 0 mm | - | 624 W/m² | - |
| 1788543686 | 28.89° C | 26% | 1025.6 hPa | 0 mm | - | 634 W/m² | - |
| 1788543382 | 28.33° C | 26% | 1025.6 hPa | 0 mm | - | 642 W/m² | - |
| 1788543077 | 28.33° C | 27% | 1025.5 hPa | 0 mm | - | 662 W/m² | - |
| 1788542773 | 28.33° C | 26% | 1025.4 hPa | 0 mm | - | 655 W/m² | - |
| 1788542472 | 27.78° C | 27% | 1025.5 hPa | 0 mm | - | 679 W/m² | - |
| 1788542167 | 28.89° C | 26% | 1025.4 hPa | 0 mm | - | 698 W/m² | - |
| 1788541863 | 28.33° C | 26% | 1025.9 hPa | 0 mm | - | 727 W/m² | - |
| 1788541558 | 27.78° C | 28% | 1025.5 hPa | 0 mm | - | 725 W/m² | - |
| 1788541255 | 27.22° C | 28% | 1025.5 hPa | 0 mm | - | 724 W/m² | - |
* Rain latest hour (hover to see other rain measurements)
** Current wind speed in m/s (hover to see current wind gust speed)